Location: Gradaro
(45.0833°N, 10.8833°E)
Time: 09:49:53
(UTC+00:00)

CENTAUR R/B - Pass Details

Date: 29 November 2020
Orbit: 750 x 1438 km, 63.4° (Epoch: 11 January)

Event Time Altitude Azimuth Distance (km) Brightness Sun altitude
Exits shadow 02:14:23 42° 84° (E) 1,874 4.1 -44.8°
Drops below altitude 10° 02:20:38 10° 117° (ESE) 3,528 5.8 -43.7°
Sets 02:23:46 0° 123° (ESE) 4,518 6.4 -43.2°
